This demonstration page uses our WeatherBlox Daily Observations layout. Learn more.

Left ArrowRight Arrow

39.92423, -83.80882

Hourly Observations for May 23, 2018

Temp ( °F °C ) Dew Point ( °F °C ) Humidity (%) Winds ( mph kmh ) Pressure ( in mb ) Visibility ( mi km ) Precip ( " mm )
12:56 am 00:56 Clear 63 17.2 59 15 87 87 NNW 7 11 30.04 1017 10 16.0934 0 0
1:56 am 01:56 Clear 61 16.1 58 14.4 90 90 NNW 5 7 30.04 1017 10 16.0934 0 0
2:56 am 02:56 Mostly Clear 60 15.6 58 14.4 93 93 NW 3 6 30.05 1018 10 16.0934 0 0
3:11 am 03:11 Mostly Cloudy 61 16 59 15 94 94 NW 5 7 30.06 1018 10 16.0934 0 0
3:56 am 03:56 Cloudy 61 16.1 59 15 93 93 NNW 5 7 30.07 1018 10 16.0934 0 0
4:56 am 04:56 Cloudy 61 16.1 58 14.4 90 90 NE 7 11 30.08 1019 10 16.0934 0 0
5:56 am 05:56 Cloudy 61 16.1 57 13.9 87 87 N 6 9 30.1 1019 10 16.0934 0 0
6:56 am 06:56 Cloudy 60 15.6 56 13.3 86 86 N 7 11 30.11 1020 10 16.0934 0 0
7:27 am 07:27 Partly Cloudy 61 16 55 13 83 83 NNE 9 15 30.12 1020 10 16.0934 0 0
7:56 am 07:56 Mostly Sunny 61 16.1 56 13.3 84 84 N 8 13 30.13 1020 10 16.0934 0 0
8:30 am 08:30 Mostly Cloudy 63 17 57 14 83 83 N 8 13 30.15 1021 10 16.0934 0 0
8:56 am 08:56 Cloudy 63 17.2 57 13.9 81 81 N 9 15 30.14 1021 10 16.0934 0 0
9:56 am 09:56 Mostly Cloudy 65 18.3 56 13.3 73 73 N 9 15 30.16 1021 10 16.0934 0 0
10:07 am 10:07 Partly Cloudy 64 18 55 13 73 73 NNE 7 11 30.18 1022 10 16.0934 0 0
10:56 am 10:56 Sunny 68 20 57 13.9 68 68 NNE 9 15 30.16 1021 10 16.0934 0 0
11:56 am 11:56 Sunny 71 21.7 57 13.9 61 61 NNE 8 13 30.18 1022 10 16.0934 0 0
12:56 pm 12:56 Sunny 72 22.2 57 13.9 59 59 NE 14 22 30.17 1022 10 16.0934 0 0
1:56 pm 13:56 Sunny 73 22.8 56 13.3 55 55 NE 13 20 30.17 1022 10 16.0934 0 0
2:56 pm 14:56 Sunny 74 23.3 57 13.9 56 56 NE 8 13 30.17 1022 10 16.0934 0 0
3:56 pm 15:56 Sunny 75 23.9 58 14.4 55 55 NNE 14 22 30.16 1021 10 16.0934 0 0
4:56 pm 16:56 Sunny 75 23.9 56 13.3 52 52 VRB 7 11 30.16 1021 10 16.0934 0 0
5:56 pm 17:56 Sunny 76 24.4 57 13.9 52 52 N 9 15 30.15 1021 10 16.0934 0 0
6:56 pm 18:56 Sunny 74 23.3 55 12.8 52 52 NE 9 15 30.14 1021 10 16.0934 0 0
7:56 pm 19:56 Sunny 72 22.2 56 13.3 57 57 NE 9 15 30.14 1021 10 16.0934 0 0
8:56 pm 20:56 Clear 67 19.4 55 12.8 66 66 NE 7 11 30.16 1021 10 16.0934 0 0
9:56 pm 21:56 Clear 65 18.3 54 12.2 68 68 NE 7 11 30.17 1022 10 16.0934 0 0
10:56 pm 22:56 Clear 64 17.8 53 11.7 68 68 NE 7 11 30.19 1022 10 16.0934 0 0
11:56 pm 23:56 Clear 61 16.1 53 11.7 75 75 NE 7 11 30.2 1023 10 16.0934 0 0

Powered by AerisWeather